Data for 10/24/2011

Time Sea-Level Adjusted Pressure Absolute Pressure Temperature Relative Humidity Dew Point   
(mb) (inHg) (mb) (inHg) (C) (F) (%) (C) (F)
00:05 1017 30.03 846 24.98 6.7 44 57 -1.2 29.9
00:10 1017 30.03 846 24.98 7 44.6 56 -1.1 30
00:15 1017 30.03 846 24.98 6.9 44.4 56 -1.2 29.9
00:20 1017 30.03 846 24.98 7 44.7 55 -1.3 29.7
00:25 1017 30.03 846 24.98 7.2 45 56 -1 30.3
00:30 1017 30.03 846 24.98 7.1 44.8 56 -1.1 30
00:35 1017 30.03 846 24.98 6.9 44.5 57 -0.9 30.3
00:40 1017 30.03 846 24.98 6.9 44.4 56 -1.3 29.7
00:45 1016 30 846 24.98 6.8 44.3 58 -1 30.3
00:50 1016 30 846 24.98 6.5 43.7 59 -0.9 30.3
00:55 1016 30 846 24.98 6.3 43.3 59 -1 30.1
01:00 1016 30 845 24.95 6.2 43.2 59 -1.2 29.9
01:05 1016 30 845 24.95 6.3 43.4 59 -1.1 30
01:10 1016 30 845 24.95 6.3 43.4 59 -1.2 29.9
01:15 1016 30 845 24.95 6.7 44 56 -1.4 29.5
01:20 1016 30 845 24.95 6.9 44.4 56 -1.2 29.8
01:25 1016 30 845 24.95 6.8 44.3 57 -1.1 29.9
01:30 1016 30 845 24.95 6.7 44.1 58 -1 30.2
01:35 1016 30 845 24.95 6.7 44 57 -1.1 30
01:40 1016 30 845 24.95 6.4 43.6 60 -0.9 30.5
01:45 1016 30 845 24.95 5.9 42.7 62 -0.8 30.6
01:50 1016 30 845 24.95 5.6 42.1 62 -1.1 30.1
01:55 1016 30 845 24.95 5.5 42 63 -1 30.2
02:00 1016 30 845 24.95 5.5 41.9 62 -1.2 29.8
02:05 1016 30 845 24.95 5.8 42.4 62 -1 30.2
02:10 1016 30 845 24.95 5.8 42.5 61 -1.2 29.8
02:15 1015 29.97 845 24.95 6.2 43.1 59 -1.2 29.8
02:20 1015 29.97 845 24.95 6.4 43.5 58 -1.2 29.9
02:25 1015 29.97 845 24.95 6.5 43.7 58 -1.1 30
02:30 1015 29.97 845 24.95 6.4 43.6 59 -1.1 30.1
02:35 1015 29.97 845 24.95 6.4 43.5 59 -1 30.2
02:40 1015 29.97 845 24.95 6.4 43.6 59 -1 30.2
02:45 1015 29.97 845 24.95 6.5 43.7 59 -1 30.2
02:50 1015 29.97 844 24.92 6.5 43.6 59 -0.9 30.4
02:55 1015 29.97 844 24.92 6.5 43.8 59 -0.9 30.3
03:00 1015 29.97 844 24.92 6.6 43.9 59 -0.8 30.6
03:05 1015 29.97 844 24.92 6.7 44.1 59 -0.8 30.6
03:10 1015 29.97 844 24.92 6.5 43.8 60 -0.7 30.7
03:15 1015 29.97 844 24.92 6.5 43.6 60 -0.8 30.6
03:20 1015 29.97 844 24.92 6.5 43.8 59 -0.8 30.6
03:25 1015 29.97 844 24.92 6.5 43.7 60 -0.6 30.9
03:30 1015 29.97 844 24.92 6.2 43.2 61 -0.7 30.7
03:35 1015 29.97 844 24.92 6.5 43.7 60 -0.7 30.7
03:40 1015 29.97 844 24.92 6.5 43.7 60 -0.7 30.7
03:45 1015 29.97 844 24.92 6.6 43.8 60 -0.7 30.7
03:50 1015 29.97 844 24.92 6.7 44 61 -0.4 31.4
03:55 1015 29.97 845 24.95 6.8 44.2 59 -0.6 31
04:00 1015 29.97 845 24.95 6.9 44.3 60 -0.3 31.5
04:05 1015 29.97 845 24.95 6.9 44.3 60 -0.3 31.5
04:10 1015 29.97 844 24.92 6.7 44 63 0.2 32.4
04:15 1015 29.97 845 24.95 6.3 43.4 64 -0 32
04:20 1015 29.97 845 24.95 6 42.9 65 -0 32
04:25 1015 29.97 845 24.95 5.8 42.5 66 -0.1 31.9
04:30 1015 29.97 845 24.95 5.7 42.3 66 -0.1 31.9
04:35 1016 30 845 24.95 5.6 42.1 67 -0 32
04:40 1016 30 845 24.95 5.6 42 67 -0 32
04:45 1015 29.97 845 24.95 5.5 41.9 68 0 32.1
04:50 1016 30 845 24.95 5.4 41.8 68 -0.1 31.9
04:55 1016 30 845 24.95 5.4 41.8 68 -0 32
05:00 1016 30 845 24.95 5.3 41.6 69 0.1 32.2
05:05 1016 30 845 24.95 4.9 40.8 71 0.1 32.2
05:10 1016 30 845 24.95 4.7 40.5 72 0.1 32.1
05:15 1016 30 845 24.95 4.8 40.7 72 0.1 32.3
05:20 1016 30 845 24.95 4.9 40.8 71 0.1 32.2
05:25 1015 29.97 845 24.95 4.9 40.8 72 0.3 32.6
05:30 1015 29.97 845 24.95 4.6 40.3 74 0.4 32.7
05:35 1015 29.97 844 24.92 4.5 40.1 74 0.3 32.6
05:40 1015 29.97 844 24.92 4.5 40.1 74 0.3 32.6
05:45 1015 29.97 844 24.92 4.4 39.9 74 0.3 32.5
05:50 1015 29.97 844 24.92 4.5 40.1 74 0.3 32.5
05:55 1015 29.97 845 24.95 4.6 40.3 74 0.3 32.6
06:00 1015 29.97 845 24.95 4.8 40.6 73 0.3 32.6
06:05 1015 29.97 844 24.92 4.7 40.5 74 0.4 32.7
06:10 1015 29.97 844 24.92 4.6 40.3 74 0.3 32.6
06:15 1015 29.97 844 24.92 4.6 40.3 75 0.5 32.9
06:20 1015 29.97 844 24.92 4.7 40.5 75 0.6 33
06:25 1015 29.97 844 24.92 4.7 40.4 75 0.6 33.1
06:30 1015 29.97 844 24.92 4.5 40.1 75 0.5 32.8
06:35 1015 29.97 844 24.92 4.5 40.1 75 0.5 32.9
06:40 1015 29.97 844 24.92 4.4 39.9 75 0.3 32.6
06:45 1015 29.97 844 24.92 4.4 39.8 76 0.5 32.9
06:50 1015 29.97 844 24.92 4.3 39.8 74 0.2 32.3
06:55 1015 29.97 844 24.92 4.5 40.1 73 0.1 32.1
07:00 1015 29.97 844 24.92 4.5 40.1 73 0.1 32.2
07:05 1015 29.97 844 24.92 4.5 40 74 0.3 32.5
07:10 1015 29.97 844 24.92 4.4 39.9 76 0.4 32.8
07:15 1015 29.97 844 24.92 4.2 39.6 75 0.2 32.4
07:20 1015 29.97 844 24.92 4.5 40.1 72 -0 31.9
07:25 1015 29.97 844 24.92 4.7 40.5 73 0.3 32.6
07:30 1015 29.97 844 24.92 4.6 40.3 74 0.3 32.5
07:35 1015 29.97 844 24.92 4.7 40.4 73 0.3 32.5
07:40 1015 29.97 844 24.92 4.7 40.5 73 0.3 32.5
07:45 1015 29.97 844 24.92 4.8 40.6 73 0.3 32.6
07:50 1015 29.97 844 24.92 4.8 40.6 72 0.2 32.3
07:55 1015 29.97 844 24.92 4.8 40.7 73 0.4 32.7
08:00 1015 29.97 844 24.92 4.8 40.7 72 0.2 32.4
08:05 1015 29.97 844 24.92 5 41 71 0.1 32.2
08:10 1015 29.97 844 24.92 5.2 41.4 70 0.1 32.2
08:15 1015 29.97 844 24.92 5.6 42 69 0.2 32.4
08:20 1015 29.97 844 24.92 5.8 42.5 69 0.5 32.9
08:25 1015 29.97 844 24.92 6.2 43.1 67 0.6 33.1
08:30 1015 29.97 844 24.92 6.4 43.5 66 0.6 33
08:35 1015 29.97 844 24.92 6.6 43.8 66 0.7 33.3
08:40 1015 29.97 844 24.92 6.7 44 65 0.5 33
08:45 1015 29.97 844 24.92 6.6 43.9 66 0.7 33.3
08:50 1015 29.97 844 24.92 6.3 43.3 66 0.5 32.9
08:55 1015 29.97 844 24.92 6.5 43.7 66 0.6 33.1
09:00 1015 29.97 845 24.95 6.5 43.7 67 0.9 33.7
09:05 1015 29.97 845 24.95 6.6 43.9 66 0.8 33.5
09:10 1016 30 845 24.95 6.6 44 67 0.9 33.6
09:15 1016 30 845 24.95 6.6 43.9 69 1.3 34.3
09:20 1016 30 845 24.95 6.6 43.9 68 1.2 34.1
09:25 1016 30 845 24.95 6.5 43.7 68 1 33.7
09:30 1015 29.97 845 24.95 6.4 43.5 67 0.7 33.3
09:35 1015 29.97 845 24.95 6.3 43.4 67 0.6 33.1
09:40 1015 29.97 845 24.95 6.4 43.5 67 0.8 33.4
09:45 1015 29.97 845 24.95 6.6 43.9 67 0.9 33.7
09:50 1015 29.97 845 24.95 6.9 44.4 65 0.7 33.3
09:55 1015 29.97 845 24.95 7 44.5 65 0.9 33.7
10:00 1015 29.97 845 24.95 6.9 44.5 66 1 33.8
10:05 1015 29.97 845 24.95 7.1 44.8 64 0.9 33.6
10:10 1015 29.97 845 24.95 7.2 44.9 65 1.1 33.9
10:15 1015 29.97 845 24.95 7.3 45.2 64 1 33.9
10:20 1015 29.97 844 24.92 7 44.6 66 1.1 34
10:25 1015 29.97 844 24.92 6.8 44.2 65 0.8 33.4
10:30 1015 29.97 844 24.92 6.8 44.2 66 0.9 33.7
10:35 1015 29.97 844 24.92 6.9 44.4 66 1 33.8
10:40 1015 29.97 844 24.92 7.1 44.9 65 1.1 34
10:45 1015 29.97 844 24.92 7.2 44.9 65 1.1 34
10:50 1015 29.97 844 24.92 7.3 45.1 65 1.1 33.9
10:55 1015 29.97 844 24.92 7.3 45.1 66 1.3 34.3
11:00 1015 29.97 844 24.92 6.9 44.4 66 1.1 33.9
11:05 1015 29.97 844 24.92 7.1 44.8 65 1.1 34
11:10 1015 29.97 845 24.95 7.4 45.2 64 1 33.8
11:15 1016 30 845 24.95 7.5 45.6 65 1.4 34.5
11:20 1015 29.97 845 24.95 7.4 45.4 65 1.3 34.3
11:25 1015 29.97 844 24.92 7.8 46 66 1.9 35.4
11:30 1015 29.97 844 24.92 8 46.3 66 1.9 35.5
11:35 1015 29.97 844 24.92 8.2 46.7 63 1.7 35
11:40 1015 29.97 844 24.92 8.6 47.6 63 2.1 35.7
11:45 1015 29.97 844 24.92 8.7 47.6 61 1.7 35
11:50 1015 29.97 844 24.92 8.6 47.4 62 1.7 35.1
11:55 1015 29.97 844 24.92 8.6 47.5 63 2 35.7
12:00 1015 29.97 845 24.95 8.5 47.2 63 1.8 35.3
12:05 1015 29.97 845 24.95 8.3 46.9 63 1.8 35.2
12:10 1015 29.97 845 24.95 8.4 47.2 63 1.8 35.2
12:15 1015 29.97 845 24.95 8.4 47.2 63 1.8 35.2
12:20 1015 29.97 845 24.95 8.2 46.8 64 1.8 35.2
12:25 1015 29.97 845 24.95 8.1 46.6 64 1.7 35.1
12:30 1016 30 845 24.95 7.7 45.9 65 1.5 34.8
12:35 1016 30 845 24.95 7.9 46.2 67 2.1 35.8
12:40 1015 29.97 845 24.95 7.7 45.8 68 2.2 36
12:45 1015 29.97 845 24.95 7.7 45.8 69 2.4 36.4
12:50 1015 29.97 845 24.95 7.3 45.1 73 2.7 36.8
12:55 1016 30 845 24.95 7.1 44.7 76 3.1 37.5
13:00 1016 30 845 24.95 6.8 44.3 78 3.3 37.9
13:05 1016 30 845 24.95 6.5 43.7 82 3.6 38.5
13:10 1016 30 845 24.95 6.4 43.5 83 3.7 38.6
13:15 1016 30 845 24.95 6.2 43.1 85 3.9 39
13:20 1016 30 845 24.95 5.9 42.7 86 3.7 38.7
13:25 1016 30 845 24.95 6 42.8 83 3.2 37.8
13:30 1016 30 845 24.95 6.1 43 83 3.5 38.3
13:35 1016 30 845 24.95 6.3 43.3 82 3.4 38.1
13:40 1016 30 845 24.95 6.4 43.5 81 3.3 38
13:45 1016 30 845 24.95 6.5 43.7 80 3.3 37.9
13:50 1016 30 845 24.95 6.6 43.9 81 3.6 38.5
13:55 1016 30 845 24.95 6.7 44 81 3.6 38.5
14:00 1016 30 845 24.95 6.6 43.8 81 3.5 38.3
14:05 1016 30 845 24.95 6.5 43.7 76 2.7 36.8
14:10 1015 29.97 845 24.95 6.1 43 82 3.2 37.8
14:15 1015 29.97 845 24.95 6.4 43.5 79 3 37.5
14:20 1015 29.97 845 24.95 6.4 43.5 81 3.4 38.2
14:25 1015 29.97 845 24.95 6.4 43.5 80 3.2 37.7
14:30 1015 29.97 845 24.95 6.5 43.7 79 3.1 37.6
14:35 1015 29.97 845 24.95 6.2 43.2 79 2.8 37
14:40 1016 30 845 24.95 6.1 43 79 2.8 37
14:45 1015 29.97 845 24.95 6.3 43.4 79 3 37.3
14:50 1016 30 845 24.95 6.4 43.5 78 2.9 37.1
14:55 1016 30 845 24.95 6.6 43.9 76 2.6 36.7
15:00 1016 30 845 24.95 6.5 43.7 76 2.5 36.5
15:05 1015 29.97 845 24.95 6.4 43.5 75 2.3 36.1
15:10 1015 29.97 845 24.95 6.1 42.9 76 2.1 35.9
15:15 1015 29.97 845 24.95 5.9 42.6 78 2.4 36.3
15:20 1015 29.97 845 24.95 6.1 42.9 78 2.5 36.6
15:25 1016 30 845 24.95 6.1 42.9 79 2.7 36.8
15:30 1016 30 845 24.95 6 42.8 79 2.6 36.7
15:35 1016 30 845 24.95 5.9 42.6 78 2.4 36.3
15:40 1016 30 845 24.95 5.8 42.5 79 2.5 36.5
15:45 1016 30 845 24.95 6 42.7 78 2.5 36.5
15:50 1016 30 845 24.95 6.1 43 78 2.6 36.7
15:55 1016 30 845 24.95 6.2 43.2 79 2.8 37
16:00 1016 30 845 24.95 6.1 43.1 80 2.9 37.2
16:05 1016 30 845 24.95 6.1 43 80 2.9 37.2
16:10 1016 30 845 24.95 6.3 43.4 79 3 37.5
16:15 1016 30 845 24.95 6.4 43.5 80 3.2 37.7
16:20 1016 30 845 24.95 6.4 43.6 79 3.1 37.6
16:25 1016 30 845 24.95 6.4 43.6 79 3.1 37.6
16:30 1016 30 846 24.98 6.2 43.1 80 3 37.3
16:35 1017 30.03 846 24.98 4.3 39.7 90 2.7 36.9
16:40 1017 30.03 846 24.98 3.6 38.5 92 2.4 36.3
16:45 1017 30.03 846 24.98 3.6 38.4 92 2.4 36.3
16:50 1017 30.03 846 24.98 3.6 38.4 92 2.3 36.2
16:55 1017 30.03 846 24.98 3.6 38.5 92 2.5 36.5
17:00 1017 30.03 846 24.98 3.6 38.5 91 2.3 36.1
17:05 1017 30.03 846 24.98 3.3 38 92 2.1 35.8
17:10 1017 30.03 846 24.98 3.4 38.1 92 2.3 36.1
17:15 1017 30.03 846 24.98 3.5 38.4 92 2.4 36.2
17:20 1017 30.03 847 25.01 3.6 38.4 93 2.5 36.5
17:25 1017 30.03 847 25.01 3.6 38.6 90 2.1 35.8
17:30 1017 30.03 847 25.01 3.7 38.7 89 2.1 35.8
17:35 1017 30.03 847 25.01 3.7 38.7 89 2.2 35.9
17:40 1018 30.06 847 25.01 3.8 38.8 89 2.1 35.8
17:45 1018 30.06 847 25.01 3.8 38.9 89 2.1 35.8
17:50 1018 30.06 847 25.01 3.9 39.1 84 1.4 34.5
17:55 1018 30.06 847 25.01 4.1 39.3 86 2 35.6
18:00 1018 30.06 847 25.01 4 39.2 85 1.7 35
18:05 1018 30.06 847 25.01 4.1 39.3 79 0.7 33.3
18:10 1018 30.06 847 25.01 4.1 39.4 83 1.5 34.6
18:15 1018 30.06 847 25.01 4.1 39.4 82 1.4 34.5
18:20 1018 30.06 847 25.01 4.2 39.5 85 1.8 35.3
18:25 1018 30.06 847 25.01 4.1 39.4 83 1.6 34.8
18:30 1018 30.06 848 25.04 4 39.2 83 1.4 34.6
18:35 1018 30.06 848 25.04 4 39.2 81 1.1 33.9
18:40 1019 30.09 848 25.04 4 39.2 80 0.9 33.7
18:45 1019 30.09 848 25.04 4 39.1 78 0.4 32.8
18:50 1019 30.09 848 25.04 3.9 39 83 1.2 34.2
18:55 1019 30.09 848 25.04 3.7 38.6 79 0.4 32.6
19:00 1019 30.09 848 25.04 3.8 38.9 79 0.4 32.8
19:05 1019 30.09 848 25.04 3.8 38.9 79 0.6 33
19:10 1019 30.09 848 25.04 3.6 38.5 85 1.3 34.3
19:15 1019 30.09 848 25.04 2.7 36.8 89 1 33.8
19:20 1019 30.09 848 25.04 2.4 36.4 89 0.8 33.5
19:25 1019 30.09 848 25.04 2.4 36.3 89 0.8 33.5
19:30 1019 30.09 848 25.04 2.4 36.3 89 0.7 33.3
19:35 1019 30.09 848 25.04 2.3 36.2 89 0.7 33.3
19:40 1019 30.09 848 25.04 2.4 36.3 86 0.3 32.5
19:45 1019 30.09 848 25.04 2.5 36.5 85 0.2 32.3
19:50 1019 30.09 848 25.04 2.7 36.9 79 -0.6 30.9
19:55 1019 30.09 849 25.07 2.9 37.2 79 -0.4 31.2
20:00 1020 30.12 849 25.07 3.1 37.6 72 -1.4 29.5
20:05 1020 30.12 849 25.07 3.3 37.9 75 -0.8 30.6
20:10 1020 30.12 849 25.07 3.3 38 73 -1.1 30
20:15 1020 30.12 849 25.07 3.3 38 72 -1.2 29.9
20:20 1020 30.12 849 25.07 3.2 37.7 76 -0.7 30.7
20:25 1020 30.12 849 25.07 3.1 37.6 75 -0.9 30.3
20:30 1020 30.12 849 25.07 3.1 37.6 76 -0.8 30.6
20:35 1020 30.12 849 25.07 2.7 36.9 77 -0.9 30.4
20:40 1020 30.12 849 25.07 2.4 36.3 79 -0.9 30.4
20:45 1020 30.12 849 25.07 2.2 36 81 -0.8 30.6
20:50 1020 30.12 849 25.07 2.1 35.8 80 -0.9 30.3
20:55 1020 30.12 849 25.07 2 35.6 82 -0.8 30.6
21:00 1020 30.12 849 25.07 1.9 35.5 82 -0.8 30.5
21:05 1020 30.12 850 25.1 2 35.6 81 -0.9 30.3
21:10 1020 30.12 850 25.1 2.1 35.7 79 -1.3 29.7
21:15 1021 30.15 850 25.1 2.1 35.9 80 -0.9 30.3
21:20 1021 30.15 850 25.1 2.2 36 77 -1.4 29.5
21:25 1021 30.15 850 25.1 2.3 36.2 76 -1.4 29.4
21:30 1021 30.15 850 25.1 2.4 36.2 77 -1.2 29.8
21:35 1021 30.15 850 25.1 2.3 36.2 75 -1.6 29.1
21:40 1021 30.15 850 25.1 2.4 36.3 74 -1.8 28.8
21:45 1021 30.15 850 25.1 2.5 36.4 71 -2.3 27.9
21:50 1021 30.15 850 25.1 2.5 36.6 72 -1.9 28.5
21:55 1021 30.15 850 25.1 2.6 36.6 74 -1.7 29
22:00 1021 30.15 850 25.1 2.5 36.4 76 -1.3 29.6
22:05 1021 30.15 850 25.1 2.4 36.3 73 -1.9 28.5
22:10 1021 30.15 850 25.1 2.4 36.3 74 -1.8 28.8
22:15 1021 30.15 850 25.1 2.4 36.3 74 -1.8 28.7
22:20 1021 30.15 850 25.1 2.3 36.2 75 -1.6 29.1
22:25 1021 30.15 850 25.1 2.2 36 74 -1.9 28.5
22:30 1021 30.15 850 25.1 2.2 35.9 74 -1.9 28.5
22:35 1021 30.15 850 25.1 2.1 35.8 73 -2.2 28
22:40 1021 30.15 850 25.1 2.1 35.7 72 -2.5 27.6
22:45 1021 30.15 850 25.1 2 35.7 71 -2.6 27.3
22:50 1021 30.15 850 25.1 2 35.6 71 -2.7 27.1
22:55 1021 30.15 850 25.1 1.9 35.5 72 -2.5 27.5
23:00 1021 30.15 850 25.1 1.9 35.4 72 -2.7 27.2
23:05 1021 30.15 850 25.1 1.8 35.2 73 -2.6 27.3
23:10 1021 30.15 850 25.1 1.7 35 72 -2.9 26.7
23:15 1021 30.15 850 25.1 1.6 35 74 -2.6 27.4
23:20 1021 30.15 851 25.13 1.6 34.8 73 -2.8 27
23:25 1021 30.15 851 25.13 1.5 34.6 73 -2.9 26.8
23:30 1021 30.15 851 25.13 1.3 34.4 72 -3.1 26.3
23:35 1021 30.15 851 25.13 1.2 34.1 74 -3 26.7
23:40 1021 30.15 851 25.13 1 33.8 74 -3.1 26.3
23:45 1021 30.15 851 25.13 0.9 33.6 74 -3.3 26.1
23:50 1021 30.15 851 25.13 0.7 33.3 73 -3.5 25.6
23:55 1021 30.15 851 25.13 0.6 33.1 72 -3.8 25.1
24:00 1021 30.15 851 25.13 0.6 33 70 -4.3 24.3